Location: Aalen
(48.8330°N, 10.1000°E)
Time: 09:33:00
(UTC+02:00)

Transit 2A - Pass Details

Date: 02 August 2021
Orbit: 594 x 964 km, 66.7° (Epoch: 24 September)

Event Time Altitude Azimuth Distance (km) Brightness Sun altitude
Rises 13:37:05 0° 326° (NNW) 3,130 8.9 58.7°
Reaches altitude 10° 13:39:58 10° 344° (NNW) 2,276 8.3 58.7°
Maximum altitude 13:43:49 20° 31° (NNE) 1,758 7.8 58.6°
Drops below altitude 10° 13:47:56 10° 79° (ENE) 2,458 8.6 58.5°
Sets 13:51:11 0° 95° (E) 3,461 9.4 58.4°
